This demonstration page uses our WeatherBlox Daily Observations layout. Learn more.

Left ArrowRight Arrow

41.55636, -103.73856

Hourly Observations for July 24, 2018

Temp ( °F °C ) Dew Point ( °F °C ) Humidity (%) Winds ( mph kmh ) Pressure ( in mb ) Visibility ( mi km ) Precip ( " mm )
12:58 am 00:58 Partly Cloudy 59 14.9 53 11.7 81 81 SSE 8 13 30.24 1024 10 16 N/A
1:58 am 01:58 Clear 58 14.6 53 11.5 82 82 S 10 17 30.21 1023 10 16 N/A
2:58 am 02:58 Clear 58 14.3 53 11.7 85 85 S 8 13 30.19 1022 10 16 N/A
3:58 am 03:58 Clear 57 14 52 11.3 84 84 S 6 9 30.20 1023 10 16 N/A
4:58 am 04:58 Clear 57 13.8 52 10.9 83 83 SSE 6 9 30.19 1022 10 16 N/A
5:58 am 05:58 Sunny 57 13.9 51 10.8 82 82 S 3 6 30.18 1022 10 16 N/A
6:58 am 06:58 Sunny 59 15 53 11.5 80 80 SE 6 9 30.20 1023 10 16 N/A
7:58 am 07:58 Sunny 62 16.6 55 12.7 78 78 SSE 10 17 30.19 1022 10 16 N/A
8:58 am 08:58 Sunny 66 18.7 57 14 74 74 SSE 8 13 30.20 1023 10 16 N/A
9:58 am 09:58 Sunny 71 21.6 60 15.4 68 68 S 6 9 30.18 1022 10 16 N/A
10:58 am 10:58 Sunny 74 23.6 62 16.4 64 64 SSW 7 11 30.18 1022 10 16 N/A
11:58 am 11:58 Sunny 79 26 62 16.5 56 56 SSW 8 13 30.16 1021 10 16 N/A
12:58 pm 12:58 Sunny 82 27.7 60 15.5 47 47 S 5 7 30.14 1021 10 16 N/A
1:58 pm 13:58 Sunny 84 28.9 57 14 40 40 SSW 6 9 30.12 1020 10 16 N/A
2:58 pm 14:58 Sunny 85 29.6 55 12.6 35 35 ESE 12 19 30.10 1019 10 16 N/A
3:58 pm 15:58 Sunny 84 29 53 11.5 34 34 SE 10 17 30.08 1019 10 16 N/A
4:58 pm 16:58 Sunny 81 27.1 57 13.8 44 44 SE 10 17 30.09 1019 10 16 N/A
5:58 pm 17:58 Mostly Sunny 78 25.8 55 12.8 45 45 SSE 10 17 30.08 1019 10 16 N/A
6:58 pm 18:58 Sunny 82 27.6 54 12.4 39 39 SSE 13 20 30.08 1019 10 16 N/A
7:58 pm 19:58 Sunny 77 25.1 58 14.2 51 51 SSE 10 17 30.07 1018 10 16 N/A
8:58 pm 20:58 Clear 73 22.9 59 15 61 61 SSE 9 15 30.10 1019 10 16 N/A
9:58 pm 21:58 Mostly Clear 71 21.6 59 14.8 65 65 S 14 22 30.12 1020 10 16 N/A
10:58 pm 22:58 Mostly Clear 67 19.7 59 14.8 73 73 SSW 15 24 30.11 1020 10 16 N/A
11:58 pm 23:58 Clear 66 18.9 59 15.1 79 79 SSW 15 24 30.07 1018 10 16 N/A

Powered by AerisWeather